METEOR 2-17 DEB, 38283

Orbit data source: Space-Track

METEOR 2-17 DEB, 38283 is space debris in LEO originally from a launch on Sat, 30 Jan 1988 UTC launched from the Plesetsk Missile And Space Complex (PKMTR). Debris objects in space refer to the collection of defunct objects orbiting the Earth. Examples of debris include non-operational satellites, rocket bodies, and fragments generated from explosions, collisions, or faulty payload assembly.

Loading next visibility...
Identifier
38283, 1988-005AL
Orbit
LEO
Country
Flag of CISCIS
Related business
Manufacturer
Unknown
Mission
Spacecraft
Bus & Motor
Unknown
Mass
Unknown
Launch date (UTC)
1988-01-30 (38 years ago)
Launch vehicle
Unknown
Launch site
Plesetsk Missile And Space Complex (PKMTR)
Object type
Payload
Rocket body
Debris
Shape & HBR
Unknown shape, 0.1 m
Radar Cross Section
Small (<0.1 m²)

Expand to show TLE details & history
Last TLE update: 22 hours ago

TLE from 22 hours ago
0 METEOR 2-17 DEB
1 38283U 88005AL  25351.92381103  .00001550  00000-0  10244-2 0  9992
2 38283  82.5507  58.7835 0014528  63.8804 296.3859 14.01011179 78369
Epoch: 2025-12-17T22:10Z
TLE epoch observation values (Epoch: 2025-12-17T22:10:17.272Z)
Latitude
0.00005°
Longitude
-0.57516°
Altitude
888.54 km
Speed
7.41 km/s
True Right ascension
03h 55m 08s
True Declination
0° 00' 00"
Sunlit
Object was in full shadow at epoch
Visualization orbit readout
Latitude
Unknown
Longitude
Unknown
Altitude
Unknown
Speed
Unknown
Apparent Right ascension
Unknown
Apparent Declination
Unknown
Sunlit
N/A
Visualization observer readout
Local Sidereal Time
19:25:32
Azimuth
Unknown
Elevation
Unknown
Doppler factor
Unknown
Orbital elements
Apogee altitude
897.98 km
Perigee altitude
876.869 km
Semi-major axis
7,265.561 km
Eccentricity
0.00145
Inclination
82.5507°
RAAN
58.7835°
Arg. of periapsis
63.8804°
True anomaly
296.23664°
Mean anomaly
296.3859°
Eccentric anomaly
296.31128°
Mean motion
3.50461 °/min
Orbital period
102.72 mins
BSTAR
0.0010244
Loading maneuver chart data...
Computing Atmospheric mass density...
Loading historical data...
Loading historical data...
Loading historical data...
Loading historical data...
Loading historical data...
Loading historical data...
Loading historical data...

Documentation

Showing up to 5 results
|